Meteo Giornale » Osservazioni meteo Stati Uniti (USA) » Los Angeles

ore: 07:53 - Osservazioni Meteo Los Angeles
Lat. 33° 56' N Lon. 118° 23' W Alt. 38 metri s.l.m.

foschia America/Los_Angeles

15 °C

Foschia

Temp. 24 Ore

14 °C

23 °C

Nord

0 Km/h

Dew point 13 °C

Umidità 87 %

Visibilità  2 Km

Il sole sorge alle ore 06:15

Il sole tramonta alle ore 19:29

Data e Ora Cielo e Fenomeni T °C DP °C Um. % Pres. hPa Vis. km Vento km/h
Oggi h: 07:53 foschia Foschia 15 13 87 1015 2 N 0
Oggi h: 06:53 foschia Foschia 14 12 87 1015 2 N 5.5
Oggi h: 05:53 foschia Foschia 14 12 87 1015 2 N 0
Oggi h: 04:53 foschia Foschia 14 12 87 1015 2 E 7.4
Oggi h: 04:51 foschia Foschia 14 12 87 1015 2 E/SE 9.3
Oggi h: 03:53 foschia Foschia 14 12 87 1015 5 E/NE 9.3
Oggi h: 03:44 foschia Foschia 14 12 87 1015 5 N 0
Oggi h: 02:53 foschia Foschia 14 12 87 1016 2 O 9.3
Oggi h: 01:53 foschia Foschia 14 12 87 1017 2 O 11.1
Oggi h: 00:53 foschia Foschia 14 13 93 1017 3 O/SO 13
Ieri h: 23:53 foschia Foschia 14 13 93 1018 2 O/SO 20.3
Ieri h: 23:36 foschia Foschia 14 13 93 1017 2 O/SO 18.5
Ieri h: 23:12 nebbia Nebbia 14 13 93 1017 2 O/SO 16.7
Ieri h: 23:06 nebbia Nebbia 15 13 87 1017 2 SO 11.1
Ieri h: 22:53 nebbia Banco di Nebbia 16 13 82 1017 14 S 11.1
Ieri h: 22:48 nebbia Banco di Nebbia 16 13 82 1017 14 S/SO 9.3
Ieri h: 21:53 poco_nuvoloso Poco Nuvoloso 16 13 82 1016 10 N 5.5
Ieri h: 20:53 poco_nuvoloso Poco Nuvoloso 16 13 82 1017 10 O/SO 13
Ieri h: 19:53 nuvoloso Nuvoloso 16 13 82 1016 10 O/SO 13
Ieri h: 18:53 nuvoloso Nuvoloso 17 13 77 1016 10 O/SO 22.2
Ieri h: 17:53 nuvoloso Nuvoloso 19 12 63 1016 10 O 20.3
Ieri h: 16:53 nuvoloso Nuvoloso 19 12 63 1016 10 O 24
Ieri h: 15:53 nuvoloso Nuvoloso 21 11 52 1017 10 O 29.6
Ieri h: 14:53 nuvoloso Nuvoloso 21 11 52 1018 10 O/SO 20.3
Ieri h: 13:53 nuvoloso Nuvoloso 20 12 59 1018 10 O/SO 20.3
Ieri h: 12:53 nuvoloso Nuvoloso 21 12 56 1019 10 O 20.3
Ieri h: 11:53 molto_nuvoloso Molto Nuvoloso 21 11 52 1019 10 O/SO 22.2
Ieri h: 10:53 molto_nuvoloso Molto Nuvoloso 22 11 49 1019 10 O/SO 14.8
Ieri h: 09:53 molto_nuvoloso Molto Nuvoloso 23 10 43 1019 10 N 0
Ieri h: 08:53 molto_nuvoloso Molto Nuvoloso 20 11 56 1019 10 E 7.4